TimeEST,TemperatureF,Dew PointF,Humidity,Sea Level PressureIn,VisibilityMPH,Wind Direction,Wind SpeedMPH,Gust SpeedMPH,PrecipitationIn,Events,Conditions,WindDirDegrees,DateUTC
12:51 AM,21.9,16.0,78,29.98,-9999.0,WSW,6.9,-,N/A,,Unknown,240,2013-01-03 05:51:00
1:51 AM,21.9,16.0,78,29.96,-9999.0,Variable,5.8,-,N/A,,Unknown,0,2013-01-03 06:51:00
2:51 AM,21.9,17.1,82,29.95,-9999.0,Variable,4.6,-,N/A,,Unknown,0,2013-01-03 07:51:00
3:51 AM,28.0,23.0,81,29.95,-9999.0,North,15.0,-,0.02,,Unknown,350,2013-01-03 08:51:00
4:51 AM,28.0,21.9,78,29.94,-9999.0,North,17.3,-,N/A,,Unknown,360,2013-01-03 09:51:00
5:51 AM,27.0,21.9,81,29.95,-9999.0,NNE,23.0,29.9,N/A,,Unknown,20,2013-01-03 10:51:00
6:51 AM,24.1,19.9,84,29.99,-9999.0,NNE,25.3,31.1,N/A,,Unknown,30,2013-01-03 11:51:00
7:51 AM,23.0,19.0,85,30.00,-9999.0,NNE,24.2,32.2,N/A,,Unknown,30,2013-01-03 12:51:00
8:51 AM,21.9,17.1,82,30.03,-9999.0,NNE,18.4,27.6,N/A,,Unknown,20,2013-01-03 13:51:00
9:51 AM,21.0,15.1,78,30.04,-9999.0,North,20.7,25.3,N/A,,Unknown,10,2013-01-03 14:51:00
10:51 AM,21.0,15.1,78,30.06,-9999.0,NNE,19.6,-,N/A,,Unknown,20,2013-01-03 15:51:00
11:51 AM,21.0,16.0,81,30.06,-9999.0,NNW,17.3,25.3,N/A,,Unknown,340,2013-01-03 16:51:00
12:51 PM,21.0,15.1,78,30.05,-9999.0,North,20.7,-,N/A,,Unknown,360,2013-01-03 17:51:00
1:51 PM,21.0,14.0,74,30.04,-9999.0,NNW,17.3,24.2,N/A,,Unknown,340,2013-01-03 18:51:00
2:51 PM,21.9,10.0,60,30.01,-9999.0,NNW,11.5,-,N/A,,Unknown,330,2013-01-03 19:51:00
3:51 PM,23.0,10.9,60,29.99,-9999.0,Variable,6.9,-,N/A,,Unknown,0,2013-01-03 20:51:00
4:51 PM,24.1,15.1,69,29.98,-9999.0,NW,4.6,-,N/A,,Unknown,310,2013-01-03 21:51:00
5:51 PM,24.1,17.1,75,29.96,-9999.0,West,6.9,-,N/A,,Unknown,280,2013-01-03 22:51:00
6:51 PM,25.0,18.0,75,29.93,-9999.0,Variable,4.6,-,N/A,,Unknown,0,2013-01-03 23:51:00
7:51 PM,23.0,16.0,74,29.89,-9999.0,Variable,3.5,-,N/A,,Unknown,0,2013-01-04 00:51:00
8:51 PM,23.0,15.1,72,29.83,-9999.0,Variable,4.6,-,N/A,,Unknown,0,2013-01-04 01:51:00
9:51 PM,24.1,15.1,69,29.73,-9999.0,West,12.7,25.3,N/A,,Unknown,270,2013-01-04 02:51:00
10:51 PM,25.0,12.9,60,29.74,-9999.0,NW,11.5,19.6,N/A,,Unknown,310,2013-01-04 03:51:00
11:51 PM,28.0,19.9,72,29.73,-9999.0,NW,12.7,35.7,N/A,,Unknown,320,2013-01-04 04:51:00